Melfa, VA

1:02 AM EDT on April 29, 2017 (GMT -0400)
Accomack County

Weather History for KMFV - January, 2014

Change the Weather History Date:

Sunday, January 26, 2014

  Actual Average (KWAL) Record (KWAL)
Temperature  
Mean Temperature 37 °F -  
Max Temperature 44 °F 42 °F 64 °F (2017)
Min Temperature 30 °F 27 °F 18 °F (1982)
Degree Days  
Heating Degree Days 28    
Moisture  
Dew Point 14 °F    
Average Humidity 40    
Maximum Humidity 61    
Minimum Humidity 21    
Precipitation  
Precipitation 0.00 in - - ()
Sea Level Pressure  
Sea Level Pressure 29.87 in    
Wind  
Wind Speed 11 mph (SW)    
Max Wind Speed 20 mph    
Max Gust Speed 28 mph    
Visibility 10 miles    
Events      
Averages and records for this station are not official NWS values.
T = Trace of Precipitation, MM = Missing Value Source: NWS Daily Summary

Daily Weather History Graph

Daily Weather History Graph

Search for Another Location

Airport or City:

Trip Planner

Search our weather history database for the weather conditions in past years. The results will help you decide how hot, cold, wet, or windy it might be!

Date:

Astronomy

Jan. 26, 2014 Rise Set
Actual Time 7:11 AM EST 5:20 PM EST
Civil Twilight 6:43 AM EST 5:48 PM EST
Nautical Twilight 6:11 AM EST 6:19 PM EST
Astronomical Twilight 5:40 AM EST 6:50 PM EST
Moon 2:45 AM EST (1/26) 1:08 PM EST (1/26)
Length of Visible Light 11h 04m
Length of Day
10h 08m
Waning Crescent, 24% of the Moon is Illuminated
Jan 26
Waning Crescent
Jan 30
New
Feb 6
First Quarter
Feb 14
Full
Feb 22
Last Quarter

Hourly Weather History & Observations

Time (EST) Temp. Windchill Dew Point Humidity Pressure Visibility Wind Dir Wind Speed Gust Speed Precip Events Conditions
12:15 AM 37.4 °F 30.3 °F 17.6 °F 45% 29.68 in 10.0 mi WSW 10.4 mph 17.3 mph N/A   Mostly Cloudy
12:35 AM 37.4 °F 29.3 °F 17.6 °F 45% 29.68 in 10.0 mi WSW 12.7 mph 21.9 mph N/A   Scattered Clouds
12:57 AM 37.4 °F 28.9 °F 19.4 °F 48% 29.69 in 10.0 mi West 13.8 mph 19.6 mph N/A   Scattered Clouds
1:15 AM 37.4 °F 29.3 °F 19.4 °F 48% 29.71 in 10.0 mi West 12.7 mph 19.6 mph N/A   Clear
1:35 AM 37.4 °F 29.3 °F 19.4 °F 48% 29.73 in 10.0 mi West 12.7 mph 19.6 mph N/A   Clear
1:55 AM 37.4 °F 29.8 °F 21.2 °F 52% 29.74 in 10.0 mi West 11.5 mph 18.4 mph N/A   Clear
2:15 AM 37.4 °F 28.2 °F 19.4 °F 48% 29.76 in 10.0 mi West 16.1 mph 24.2 mph N/A   Clear
2:35 AM 35.6 °F 25.5 °F 15.8 °F 44% 29.77 in 10.0 mi West 17.3 mph 25.3 mph N/A   Clear
2:55 AM 35.6 °F 24.8 °F 10.4 °F 35% 29.78 in 10.0 mi WNW 19.6 mph 25.3 mph N/A   Clear
3:15 AM 35.6 °F 24.8 °F 10.4 °F 35% 29.79 in 10.0 mi West 19.6 mph 25.3 mph N/A   Clear
3:35 AM 35.6 °F 25.5 °F 8.6 °F 33% 29.80 in 10.0 mi WNW 17.3 mph 25.3 mph N/A   Clear
3:55 AM 35.6 °F 26.2 °F 6.8 °F 30% 29.81 in 10.0 mi WNW 15.0 mph 27.6 mph N/A   Clear
4:15 AM 33.8 °F 24.8 °F 8.6 °F 35% 29.83 in 10.0 mi WNW 12.7 mph 24.2 mph N/A   Clear
4:37 AM 33.8 °F 25.3 °F 5.0 °F 30% 29.85 in 10.0 mi West 11.5 mph 19.6 mph N/A   Clear
4:55 AM 33.8 °F 25.8 °F 5.0 °F 30% 29.87 in 10.0 mi West 10.4 mph 17.3 mph N/A   Clear
5:15 AM 33.8 °F 24.3 °F 5.0 °F 30% 29.90 in 10.0 mi West 13.8 mph 19.6 mph N/A   Clear
5:35 AM 33.8 °F 24.8 °F 6.8 °F 32% 29.91 in 10.0 mi WNW 12.7 mph 24.2 mph N/A   Clear
5:55 AM 33.8 °F 24.8 °F 6.8 °F 32% 29.91 in 10.0 mi WNW 12.7 mph - N/A   Clear
6:15 AM 32.0 °F 21.6 °F 6.8 °F 35% 29.92 in 10.0 mi WNW 15.0 mph 20.7 mph N/A   Clear
6:35 AM 32.0 °F 23.6 °F 6.8 °F 35% 29.92 in 10.0 mi WNW 10.4 mph 18.4 mph N/A   Clear
6:55 AM 32.0 °F 24.8 °F 6.8 °F 35% 29.94 in 10.0 mi WNW 8.1 mph 19.6 mph N/A   Clear
7:15 AM 30.2 °F 21.3 °F 6.8 °F 37% 29.94 in 10.0 mi WNW 10.4 mph - N/A   Clear
7:37 AM 30.2 °F 24.3 °F 6.8 °F 37% 29.94 in 10.0 mi WNW 5.8 mph - N/A   Clear
7:55 AM 30.2 °F 22.6 °F 6.8 °F 37% 29.95 in 10.0 mi WNW 8.1 mph - N/A   Clear
8:16 AM 32.0 °F 26.4 °F 8.6 °F 38% 29.97 in 10.0 mi WNW 5.8 mph - N/A   Clear
8:35 AM 32.0 °F 27.5 °F 8.6 °F 38% 29.96 in 10.0 mi WNW 4.6 mph - N/A   Clear
8:55 AM 32.0 °F 28.7 °F 10.4 °F 41% 29.96 in 10.0 mi NW 3.5 mph - N/A   Clear
9:15 AM 33.8 °F 28.6 °F 10.4 °F 38% 29.96 in 10.0 mi WNW 5.8 mph - N/A   Clear
9:35 AM 35.6 °F 31.7 °F 8.6 °F 33% 29.97 in 10.0 mi West 4.6 mph - N/A   Clear
9:55 AM 33.8 °F 28.6 °F 5.0 °F 30% 29.97 in 10.0 mi NW 5.8 mph - N/A   Clear
10:15 AM 35.6 °F - 6.8 °F 30% 29.97 in 10.0 mi Calm Calm - N/A   Clear
10:35 AM 37.4 °F 33.8 °F 1.4 °F 22% 29.96 in 10.0 mi WSW 4.6 mph - N/A   Clear
10:55 AM 37.4 °F 31.4 °F 5.0 °F 26% 29.97 in 10.0 mi SW 8.1 mph - N/A   Clear
11:15 AM 37.4 °F 33.8 °F 3.2 °F 24% 29.95 in 10.0 mi WSW 4.6 mph - N/A   Clear
11:35 AM 37.4 °F 31.4 °F 1.4 °F 22% 29.95 in 10.0 mi SSW 8.1 mph - N/A   Clear
11:55 AM 37.4 °F 30.3 °F 3.2 °F 24% 29.94 in 10.0 mi SW 10.4 mph - N/A   Clear
12:15 PM 39.2 °F 32.0 °F 1.4 °F 21% 29.93 in 10.0 mi WSW 11.5 mph - N/A   Clear
12:35 PM 39.2 °F 32.0 °F 1.4 °F 21% 29.92 in 10.0 mi SW 11.5 mph - N/A   Clear
12:55 PM 39.2 °F 33.0 °F 3.2 °F 22% 29.91 in 10.0 mi SW 9.2 mph 17.3 mph N/A   Clear
1:15 PM 39.2 °F 32.0 °F 3.2 °F 22% 29.90 in 10.0 mi SW 11.5 mph - N/A   Clear
1:35 PM 39.2 °F 33.0 °F 6.8 °F 26% 29.88 in 10.0 mi SW 9.2 mph - N/A   Clear
1:55 PM 39.2 °F 33.6 °F 6.8 °F 26% 29.88 in 10.0 mi South 8.1 mph - N/A   Clear
2:15 PM 41.0 °F 33.9 °F 5.0 °F 23% 29.88 in 10.0 mi SSW 12.7 mph 17.3 mph N/A   Clear
2:35 PM 41.0 °F 36.4 °F 6.8 °F 24% 29.88 in 10.0 mi South 6.9 mph - N/A   Clear
2:55 PM 39.2 °F 34.2 °F 10.4 °F 31% 29.88 in 10.0 mi South 6.9 mph - N/A   Clear
3:15 PM 39.2 °F 34.2 °F 12.2 °F 33% 29.88 in 10.0 mi South 6.9 mph - N/A   Clear
3:35 PM 39.2 °F 34.2 °F 10.4 °F 31% 29.89 in 10.0 mi South 6.9 mph - N/A   Clear
3:55 PM 39.2 °F 33.6 °F 12.2 °F 33% 29.88 in 10.0 mi SSE 8.1 mph - N/A   Clear
4:15 PM 39.2 °F 34.2 °F 15.8 °F 39% 29.87 in 10.0 mi SSE 6.9 mph - N/A   Clear
4:35 PM 41.0 °F 38.0 °F 17.6 °F 39% 29.89 in 10.0 mi South 4.6 mph - N/A   Clear
4:55 PM 41.0 °F 37.1 °F 19.4 °F 42% 29.88 in 10.0 mi SSE 5.8 mph - N/A   Clear
5:15 PM 41.0 °F 35.8 °F 21.2 °F 45% 29.86 in 10.0 mi SSE 8.1 mph - N/A   Clear
5:35 PM 41.0 °F 35.8 °F 23.0 °F 49% 29.86 in 10.0 mi SSE 8.1 mph - N/A   Clear
5:55 PM 39.2 °F 34.2 °F 24.8 °F 56% 29.86 in 10.0 mi SSE 6.9 mph - N/A   Clear
6:16 PM 41.0 °F 35.8 °F 26.6 °F 57% 29.87 in 10.0 mi South 8.1 mph - N/A   Clear
6:35 PM 42.8 °F 38.6 °F 26.6 °F 53% 29.88 in 10.0 mi South 6.9 mph - N/A   Clear
6:55 PM 42.8 °F 38.0 °F 26.6 °F 53% 29.89 in 10.0 mi South 8.1 mph - N/A   Clear
7:15 PM 42.8 °F 37.5 °F 28.4 °F 57% 29.88 in 10.0 mi South 9.2 mph - N/A   Clear
7:36 PM 42.8 °F 37.0 °F 28.4 °F 57% 29.88 in 10.0 mi South 10.4 mph 16.1 mph N/A   Clear
7:55 PM 42.8 °F 38.0 °F 30.2 °F 61% 29.88 in 10.0 mi South 8.1 mph - N/A   Clear
8:15 PM 42.8 °F 37.5 °F 28.4 °F 57% 29.87 in 10.0 mi South 9.2 mph 16.1 mph N/A   Clear
8:36 PM 42.8 °F 38.0 °F 28.4 °F 57% 29.87 in 10.0 mi South 8.1 mph 17.3 mph N/A   Clear
8:55 PM 42.8 °F 37.5 °F 28.4 °F 57% 29.86 in 10.0 mi South 9.2 mph - N/A   Clear
9:16 PM 42.8 °F 38.0 °F 28.4 °F 57% 29.86 in 10.0 mi South 8.1 mph - N/A   Clear
9:35 PM 42.8 °F 37.5 °F 28.4 °F 57% 29.86 in 10.0 mi South 9.2 mph - N/A   Clear
9:56 PM 42.8 °F 38.0 °F 28.4 °F 57% 29.85 in 10.0 mi South 8.1 mph - N/A   Clear
10:15 PM 42.8 °F 38.0 °F 28.4 °F 57% 29.86 in 10.0 mi SSW 8.1 mph - N/A   Clear
10:35 PM 42.8 °F 38.0 °F 28.4 °F 57% 29.86 in 10.0 mi SSW 8.1 mph - N/A   Clear
10:55 PM 44.6 °F 40.7 °F 26.6 °F 49% 29.85 in 10.0 mi SSW 6.9 mph - N/A   Clear
11:15 PM 42.8 °F 39.3 °F 26.6 °F 53% 29.85 in 10.0 mi SSW 5.8 mph - N/A   Clear
11:35 PM 42.8 °F 37.5 °F 26.6 °F 53% 29.85 in 10.0 mi SSW 9.2 mph - N/A   Clear
11:55 PM 44.6 °F 40.2 °F 24.8 °F 46% 29.84 in 10.0 mi SW 8.1 mph - N/A   Clear